Regional Weather Roundup
Issued by NWS

Home | Current Version | Previous Version | Text Only | Print | Product List | Glossary On
Versions: 1 2 3 4 5 6 7 8 9 10 11 12 13 14 15 16 17 18 19 20 21 22 23 24 25 26 27 28 29 30 31 32 33 34 35 36 37 38 39 40 41 42 43 44 45 46 47 48 49 50
000
ASUS44 KOUN 260700
RWROK

WEATHER ROUNDUP FOR OKLAHOMA
NATIONAL WEATHER SERVICE NORMAN OK
100 AM CST SUN FEB 26 2017

NOTE: "FAIR" INDICATES FEW OR NO CLOUDS BELOW 12,000 FEET WITH NO
      SIGNIFICANT WEATHER AND/OR OBSTRUCTIONS TO VISIBILITY.

OKZ001>007-009>012-014-015-017-260800-
NORTHWEST OKLAHOMA AND THE PANHANDLE

CITY           SKY/WX    TMP DP  RH WIND       PRES   REMARKS
GAGE           CLEAR     35  18  49 S23G31    29.84F WCI  23
GUYMON         PTCLDY    43  13  29 W14       29.80R
$$

OKZ016-021>023-033>039-044-045-260800-
SOUTHWEST OKLAHOMA

CITY           SKY/WX    TMP DP  RH WIND       PRES   REMARKS
FREDERICK      CLEAR     36  26  67 SE12      29.94F WCI  28
CLINTON        CLEAR     35  19  52 S16       29.92F WCI  25
HOBART         CLEAR     38  22  52 S13       29.94F WCI  30
ALTUS AFB      CLEAR     36  21  53 SE10      29.95F WCI  28
$$

OKZ018>020-024>031-260800-
CENTRAL OKLAHOMA

CITY           SKY/WX    TMP DP  RH WIND       PRES   REMARKS
OKLAHOMA CITY  PTCLDY    34  20  56 S10       29.99F WCI  26
OKC/WILEY POST CLEAR     40  18  41 S15       29.99F WCI  32
STILLWATER     CLEAR     37  17  44 S12       30.00F WCI  29
GUTHRIE        CLOUDY    37  18  46 S8        29.99F WCI  31
$$

OKZ008-013-054>072-260800-
NORTHEAST OKLAHOMA

CITY           SKY/WX    TMP DP  RH WIND       PRES   REMARKS
TULSA          PTCLDY    37  19  48 SE5       30.05F WCI  33
TULSA/JONES    CLEAR     36  18  48 S5        30.06F WCI  32
PONCA CITY     CLOUDY    36  18  48 SE9       30.00F WCI  29
BARTLESVILLE   CLEAR     24  19  81 CALM      30.06F
MUSKOGEE       PTCLDY    30  25  81 S6        30.09F WCI  24
$$

OKZ032-040>043-046>053-073>077-260800-
SOUTH CENTRAL/SOUTHEAST OKLAHOMA

CITY           SKY/WX    TMP DP  RH WIND       PRES   REMARKS
MCALESTER      PTCLDY    34  21  59 CALM      30.08F
$$





USA.gov is the U.S. government's official web portal to all federal, state and local government web resources and services.